Weather History for K20U - June, 2013

Change the Weather History Date:

Tuesday, June 18, 2013

  Actual Average (KGDV) Record (KGDV)
Temperature  
Mean Temperature 60 °F -  
Max Temperature 77 °F 72 °F 84 °F (2003)
Min Temperature 44 °F 48 °F 30 °F (2004)
Degree Days  
Heating Degree Days 4    
Growing Degree Days 10 (Base 50)    
Moisture  
Dew Point 55 °F    
Average Humidity 74    
Maximum Humidity 100    
Minimum Humidity 47    
Precipitation  
Precipitation 0.00 in - - ()
Sea Level Pressure  
Sea Level Pressure 30.01 in    
Wind  
Wind Speed 9 mph (SE)    
Max Wind Speed 21 mph    
Max Gust Speed 26 mph    
Visibility 10 miles    
Events Rain    
Averages and records for this station are not official NWS values.
T = Trace of Precipitation, MM = Missing Value Source: NWS Daily Summary

Daily Weather History Graph

Daily Weather History Graph

Search for Another Location

Airport or City:

Trip Planner

Search our weather history database for the weather conditions in past years. The results will help you decide how hot, cold, wet, or windy it might be!

Date:

Astronomy

Jun. 18, 2013 Rise Set
Actual Time 5:00 AM MDT 8:53 PM MDT
Civil Twilight 4:20 AM MDT 9:33 PM MDT
Nautical Twilight 3:26 AM MDT 10:27 PM MDT
Astronomical Twilight 2:05 AM MDT 11:49 PM MDT
Moon 3:26 PM MDT (6/18) 1:27 AM MDT (6/18)
Length of Visible Light 17h 12m
Length of Day
15h 52m
Waxing Gibbous, 71% of the Moon is Illuminated
Jun 18
Waxing Gibbous
Jun 23
Full
Jun 29
Last Quarter
Jul 8
New
Jul 15
First Quarter

Hourly Weather History & Observations

Time (MDT) Temp. Windchill Dew Point Humidity Pressure Visibility Wind Dir Wind Speed Gust Speed Precip Events Conditions
12:15 AM 50.0 °F - 50.0 °F 100% 30.11 in 10.0 mi SE 4.6 mph - N/A   Clear
12:35 AM 48.2 °F - 48.2 °F 100% 30.12 in 10.0 mi SSE 3.5 mph - N/A   Clear
12:55 AM 48.2 °F - 48.2 °F 100% 30.11 in 10.0 mi SE 4.6 mph - N/A   Clear
1:15 AM 48.2 °F - 48.2 °F 100% 30.11 in 10.0 mi SE 5.8 mph - N/A   Clear
1:55 AM 48.2 °F - 48.2 °F 100% 30.11 in 10.0 mi SE 8.1 mph - N/A   Clear
2:15 AM 48.2 °F - 48.2 °F 100% 30.11 in 10.0 mi SE 6.9 mph - N/A   Clear
2:35 AM 48.2 °F - 48.2 °F 100% 30.11 in 10.0 mi SSE 8.1 mph - N/A   Clear
2:55 AM 48.2 °F - 48.2 °F 100% 30.11 in 10.0 mi ESE 5.8 mph - N/A   Clear
3:15 AM 48.2 °F - 48.2 °F 100% 30.10 in 10.0 mi SSE 4.6 mph - N/A   Clear
3:35 AM 48.2 °F - 48.2 °F 100% 30.10 in 10.0 mi SE 6.9 mph - N/A   Clear
3:55 AM 48.2 °F - 48.2 °F 100% 30.10 in 10.0 mi ESE 5.8 mph - N/A   Clear
4:15 AM 48.2 °F - 48.2 °F 100% 30.10 in 10.0 mi SE 4.6 mph - N/A   Clear
4:35 AM 48.2 °F - 48.2 °F 100% 30.09 in 10.0 mi ESE 4.6 mph - N/A   Clear
4:55 AM 46.4 °F 44.3 °F 46.4 °F 100% 30.09 in 10.0 mi ESE 4.6 mph - N/A   Clear
5:15 AM 44.6 °F 40.7 °F 44.6 °F 100% 30.09 in 10.0 mi SE 6.9 mph - N/A   Clear
5:35 AM 46.4 °F 43.5 °F 46.4 °F 100% 30.09 in 10.0 mi SE 5.8 mph - N/A   Clear
5:55 AM 48.2 °F - 48.2 °F 100% 30.09 in 10.0 mi SE 4.6 mph - N/A   Clear
6:15 AM 50.0 °F - 50.0 °F 100% 30.09 in 10.0 mi SE 6.9 mph - N/A   Partly Cloudy
6:35 AM 53.6 °F - 51.8 °F 94% 30.09 in 10.0 mi SE 6.9 mph - N/A   Partly Cloudy
6:55 AM 55.4 °F - 53.6 °F 94% 30.09 in 10.0 mi SE 8.1 mph - N/A   Clear
7:15 AM 57.2 °F - 53.6 °F 88% 30.09 in 10.0 mi SE 8.1 mph - N/A   Partly Cloudy
7:35 AM 59.0 °F - 51.8 °F 77% 30.09 in 10.0 mi SSE 11.5 mph - N/A   Partly Cloudy
7:55 AM 59.0 °F - 53.6 °F 82% 30.08 in 10.0 mi SE 11.5 mph - N/A   Partly Cloudy
8:15 AM 62.6 °F - 53.6 °F 72% 30.08 in 10.0 mi SSE 15.0 mph 18.4 mph N/A   Clear
8:35 AM 62.6 °F - 55.4 °F 77% 30.08 in 10.0 mi SSE 11.5 mph 16.1 mph N/A   Clear
8:55 AM 64.4 °F - 55.4 °F 73% 30.08 in 10.0 mi SSE 11.5 mph 18.4 mph N/A   Clear
9:15 AM 64.4 °F - 55.4 °F 73% 30.07 in 10.0 mi SSE 15.0 mph - N/A   Clear
9:35 AM 66.2 °F - 57.2 °F 73% 30.05 in 10.0 mi SSE 15.0 mph 20.7 mph N/A   Clear
9:55 AM 66.2 °F - 57.2 °F 73% 30.05 in 10.0 mi SSE 16.1 mph 21.9 mph N/A   Clear
10:15 AM 68.0 °F - 57.2 °F 68% 30.04 in 10.0 mi SSE 17.3 mph - N/A   Clear
10:35 AM 68.0 °F - 59.0 °F 73% 30.04 in 10.0 mi SSE 12.7 mph 18.4 mph N/A   Clear
10:55 AM 69.8 °F - 59.0 °F 68% 30.03 in 10.0 mi SSE 13.8 mph 19.6 mph N/A   Clear
11:15 AM 71.6 °F - 59.0 °F 64% 30.03 in 10.0 mi SSE 12.7 mph - N/A   Clear
11:35 AM 71.6 °F - 60.8 °F 69% 30.02 in 10.0 mi SE 13.8 mph - N/A   Clear
11:55 AM 73.4 °F - 59.0 °F 61% 30.02 in 10.0 mi SE 12.7 mph 18.4 mph N/A   Clear
12:15 PM 73.4 °F - 59.0 °F 61% 30.02 in 10.0 mi SE 10.4 mph - N/A   Clear
12:35 PM 73.4 °F - 59.0 °F 61% 30.01 in 10.0 mi SSE 11.5 mph 16.1 mph N/A Rain Light Rain
12:55 PM 75.2 °F - 59.0 °F 57% 30.01 in 10.0 mi ESE 11.5 mph 19.6 mph N/A   Clear
1:15 PM 75.2 °F - 59.0 °F 57% 30.00 in 10.0 mi SSE 11.5 mph - N/A   Clear
1:35 PM 75.2 °F - 57.2 °F 53% 29.99 in 10.0 mi SE 13.8 mph 19.6 mph N/A   Clear
1:55 PM 75.2 °F - 57.2 °F 53% 29.98 in 10.0 mi ESE 15.0 mph 21.9 mph N/A   Clear
2:15 PM 77.0 °F - 57.2 °F 50% 29.98 in 10.0 mi ESE 13.8 mph - N/A   Clear
2:35 PM 77.0 °F - 57.2 °F 50% 29.97 in 10.0 mi SE 13.8 mph 19.6 mph N/A   Clear
2:55 PM 77.0 °F - 57.2 °F 50% 29.97 in 10.0 mi ESE 16.1 mph 21.9 mph N/A   Clear
3:15 PM 77.0 °F - 57.2 °F 50% 29.96 in 10.0 mi ESE 12.7 mph 20.7 mph N/A   Clear
3:35 PM 77.0 °F - 55.4 °F 47% 29.95 in 10.0 mi SSE 15.0 mph 20.7 mph N/A   Clear
3:55 PM 77.0 °F - 57.2 °F 50% 29.94 in 10.0 mi SE 16.1 mph 21.9 mph N/A   Clear
4:15 PM 77.0 °F - 57.2 °F 50% 29.94 in 10.0 mi SE 16.1 mph 23.0 mph N/A   Clear
4:35 PM 77.0 °F - 57.2 °F 50% 29.94 in 10.0 mi SE 17.3 mph 24.2 mph N/A   Clear
4:55 PM 77.0 °F - 55.4 °F 47% 29.93 in 10.0 mi SE 20.7 mph 24.2 mph N/A   Clear
5:15 PM 77.0 °F - 55.4 °F 47% 29.92 in 10.0 mi SE 17.3 mph 24.2 mph N/A   Clear
5:35 PM 77.0 °F - 55.4 °F 47% 29.92 in 10.0 mi SSE 18.4 mph 24.2 mph N/A   Clear
5:55 PM 77.0 °F - 55.4 °F 47% 29.92 in 10.0 mi SE 18.4 mph 24.2 mph N/A   Clear
6:15 PM 75.2 °F - 55.4 °F 50% 29.92 in 10.0 mi SE 18.4 mph 26.5 mph N/A   Clear
6:35 PM 75.2 °F - 55.4 °F 50% 29.91 in 10.0 mi SSE 18.4 mph 25.3 mph N/A   Partly Cloudy
6:55 PM 75.2 °F - 55.4 °F 50% 29.91 in 10.0 mi SE 16.1 mph 23.0 mph N/A   Clear
7:15 PM 75.2 °F - 55.4 °F 50% 29.91 in 10.0 mi SE 13.8 mph 21.9 mph N/A   Partly Cloudy
7:35 PM 73.4 °F - 57.2 °F 57% 29.91 in 10.0 mi SE 11.5 mph 20.7 mph N/A   Partly Cloudy
7:55 PM 73.4 °F - 57.2 °F 57% 29.91 in 10.0 mi SE 11.5 mph - N/A   Partly Cloudy
8:15 PM 71.6 °F - 57.2 °F 60% 29.90 in 10.0 mi ESE 10.4 mph - N/A   Clear
8:35 PM 69.8 °F - 57.2 °F 64% 29.90 in 10.0 mi ESE 11.5 mph - N/A   Clear
8:55 PM 68.0 °F - 57.2 °F 68% 29.90 in 10.0 mi SE 9.2 mph - N/A   Partly Cloudy
9:15 PM 66.2 °F - 57.2 °F 73% 29.90 in 10.0 mi SE 9.2 mph - N/A   Clear
9:35 PM 64.4 °F - 59.0 °F 83% 29.90 in 10.0 mi SE 9.2 mph - N/A   Clear
9:55 PM 64.4 °F - 59.0 °F 83% 29.90 in 10.0 mi SE 9.2 mph - N/A   Clear
10:15 PM 64.4 °F - 59.0 °F 83% 29.90 in 10.0 mi SE 8.1 mph - N/A   Clear
10:35 PM 62.6 °F - 59.0 °F 88% 29.90 in 10.0 mi SE 8.1 mph - N/A   Scattered Clouds
10:55 PM 62.6 °F - 59.0 °F 88% 29.89 in 10.0 mi ESE 6.9 mph - N/A   Scattered Clouds
11:15 PM 66.2 °F - 59.0 °F 78% 29.88 in 10.0 mi SE 11.5 mph - N/A   Clear
11:35 PM 64.4 °F - 59.0 °F 83% 29.87 in 10.0 mi SE 12.7 mph - N/A   Clear
11:55 PM 64.4 °F - 59.0 °F 83% 29.87 in 10.0 mi SE 12.7 mph 19.6 mph N/A   Mostly Cloudy